Home > Time Zones > World Clock > Weather > Norway > Alta > Past weeks

Flag for Norway Weather past 2 weeks in Alta, Norway

Now
39 °F

Chilly.


Feels Like: 34 °F
Forecast: 20 / 34 °F
Wind: 7 mph from South

Location: Alta Lufthavn

Current Time: Mar 3, 2015 at 12:22:33 PM

Latest Report: Mar 3, 2015 at 11:00 AM


Visibility: N/A

Pressure: 29.44 "Hg

Humidity: 68%

Dew point: 29 °F

Location of AltaLocation

Historic Weather in Alta — Graph

°F

Alta temperature yesterday

Maximum temperature yesterday: 38 °F (at 7:00 PM)
Minimum temperature yesterday: 35 °F (at 2:00 AM)
Average temperature yesterday: 36 °F

Past Weeks' High & Low Weather Summary

 TemperatureHumidityPressure
High39 °F (Feb 27, 12:00 PM)94% (Feb 25, 4:00 PM)29.94 "Hg (Feb 25, 4:00 PM)
Low17 °F (Feb 23, 8:00 AM)57% (Feb 28, 10:00 AM)28.85 "Hg (Feb 21, 2:00 AM)
Average30 °F71%29.30 "Hg
* Reported Feb 16 11:00 AM — Mar 3 11:00 AM, Alta, Weather by CustomWeather, © 2015

Note: Actual official high and low records may vary slightly from our data, if they occured in-between our weather recording intervals... More about our weather records

Advertising

Alta weather history for previous 24 hours

 ConditionsComfort  
Time TempWeatherWind HumidityBarometerVisibility
11:00 AM
Tue, Mar 3
39 °FChilly.7 mph68%29.44 "HgN/A
10:00 AM38 °FChilly.5 mph71%29.44 "HgN/A
9:00 AM38 °FChilly.8 mph69%29.41 "HgN/A
8:00 AM38 °FChilly.6 mph70%29.38 "HgN/A
7:00 AM38 °FChilly.5 mph70%29.38 "HgN/A
6:00 AM38 °FChilly.6 mph68%29.35 "HgN/A
5:00 AM38 °FChilly.7 mph68%29.35 "HgN/A
4:00 AM38 °FChilly.5 mph71%29.35 "HgN/A
3:00 AM37 °FChilly.7 mph72%29.32 "HgN/A
2:00 AM38 °FChilly.5 mph69%29.32 "HgN/A
1:00 AM37 °FChilly.3 mph69%29.32 "HgN/A
12:00 AM38 °FChilly.2 mph68%29.29 "HgN/A
11:00 PM
Mon, Mar 2
38 °FChilly.5 mph69%29.29 "HgN/A
9:00 PM38 °FChilly.10 mph69%29.26 "HgN/A
8:00 PM38 °FChilly.3 mph69%29.23 "HgN/A
7:00 PM38 °FChilly.3 mph68%29.21 "HgN/A
6:00 PM38 °FChilly.8 mph68%29.21 "HgN/A
5:00 PM37 °FChilly.6 mph69%29.21 "HgN/A
4:00 PM38 °FChilly.8 mph68%29.21 "HgN/A
3:00 PM37 °FChilly.5 mph70%29.21 "HgN/A
2:00 PM37 °FChilly.10 mph69%29.18 "HgN/A
1:00 PM37 °FChilly.12 mph69%29.18 "HgN/A
12:00 PM36 °FChilly.14 mph70%29.18 "HgN/A
Weather by CustomWeather, © 2015

See weather overviewHow to use our weather pages